PICSAT (43132 NORAD) Tracking and Keplerian Element Data

This shows tracking and keplerian element data for the satellite.

Feedback or suggestion? Click here.




ElementValue
Catalog43132
NamePICSAT
Epoch Orbit6595
Epoch Day80.70350095
Epoch Year2019
RAAN148.667
Inclination97.4976
Eccentricity0.0009327
Argument of Perigee197.4781
Mean Anonmoly162.6136
Mean Motion15.23317745
Decay Rate1.257E-05
L11 43132U 18004X 19080.70350095 .00001257 00000-0 55978-4 0 9996
L22 43132 97.4976 148.6670 0009327 197.4781 162.6136 15.23317745 65955

Live tracking and technical data element details for PICSAT (NORAD 43132). PICSAT can be tracked NOW for your location showing map with azimuth and elevation plus other details from your city location.

Track the satellite on the map from your city or location and see movement details for azimuth, elevation, latitude, longitude, range, height, and movement on the map or in text.







IsCatalogInMostPopularTable: catalog: 43132, numindb: 271
Update: records affected: 1



GetName: 43132 PICSAT

Hit Count: updated at: Sat, 23 Mar 2019 03:19:59 GMT